Walbridge, OH

6:59 AM EDT on August 26, 2016 (GMT -0400)
Metcalf

Weather History for KTDZ - September, 2013

Change the Weather History Date:

Wednesday, September 11, 2013

  Actual Average (KTOL) Record (KTOL)
Temperature  
Mean Temperature 83 °F 66 °F  
Max Temperature 95 °F 78 °F 95 °F (1931)
Min Temperature 73 °F 55 °F 35 °F (1967)
Degree Days  
Heating Degree Days 0 2  
Month to date heating degree days 16  
Since 1 July heating degree days 30  
Cooling Degree Days 18 3  
Month to date cooling degree days 47  
Year to date cooling degree days 749  
Growing Degree Days 33 (Base 50)    
Moisture  
Dew Point 66 °F    
Average Humidity 63    
Maximum Humidity 81    
Minimum Humidity 35    
Precipitation  
Precipitation 0.04 in 0.09 in 1.80 in (1986)
Month to date precipitation 1.04  
Year to date precipitation 24.36  
Snow  
Snow 0.00 in 0.00 in - ()
Month to date snowfall 0.0  
Since 1 July snowfall 0.0  
Since 1 September snowfall 0.0  
Snow Depth -    
Sea Level Pressure  
Sea Level Pressure 30.02 in    
Wind  
Wind Speed 9 mph (SW)    
Max Wind Speed 15 mph    
Max Gust Speed 25 mph    
Visibility 10 miles    
Events      
T = Trace of Precipitation, MM = Missing Value Source: NWS Daily Summary

Daily Weather History Graph

Daily Weather History Graph

Search for Another Location

Airport or City:

Trip Planner

Search our weather history database for the weather conditions in past years. The results will help you decide how hot, cold, wet, or windy it might be!

Date:

Astronomy

Sep. 11, 2013 Rise Set
Actual Time 7:10 AM EDT 7:49 PM EDT
Civil Twilight 6:42 AM EDT 8:17 PM EDT
Nautical Twilight 6:09 AM EDT 8:50 PM EDT
Astronomical Twilight 5:35 AM EDT 9:24 PM EDT
Moon 1:42 PM EDT (9/11) 11:39 PM EDT (9/11)
Length of Visible Light 13h 35m
Length of Day
12h 39m
Waxing Crescent, 38% of the Moon is Illuminated
Sep 11
Waxing Crescent
Sep 12
First Quarter
Sep 19
Full
Sep 26
Last Quarter
Oct 4
New

Hourly Weather History & Observations

Time (EDT) Temp. Heat Index Dew Point Humidity Pressure Visibility Wind Dir Wind Speed Gust Speed Precip Events Conditions
12:53 AM 78.1 °F - 66.9 °F 68% 30.05 in 10.0 mi SW 8.1 mph - N/A   Clear
1:53 AM 77.0 °F - 66.9 °F 71% 30.05 in 10.0 mi SW 8.1 mph - N/A   Clear
2:53 AM 75.9 °F - 66.9 °F 74% 30.04 in 10.0 mi SW 6.9 mph - N/A   Clear
3:53 AM 73.9 °F - 66.9 °F 79% 30.04 in 9.0 mi SSW 5.8 mph - N/A   Clear
4:53 AM 73.9 °F - 66.9 °F 79% 30.05 in 9.0 mi SW 6.9 mph - N/A   Clear
5:53 AM 75.0 °F - 66.9 °F 76% 30.05 in 10.0 mi SW 5.8 mph - N/A   Clear
6:53 AM 75.0 °F - 66.9 °F 76% 30.06 in 9.0 mi SW 8.1 mph - N/A   Partly Cloudy
7:53 AM 73.9 °F - 66.9 °F 79% 30.06 in 7.0 mi SW 6.9 mph - N/A   Clear
8:53 AM 75.0 °F - 66.9 °F 76% 30.07 in 8.0 mi SW 10.4 mph - N/A   Clear
9:53 AM 78.1 °F - 68.0 °F 71% 30.08 in 9.0 mi WSW 10.4 mph 17.3 mph N/A   Clear
10:53 AM 82.0 °F 85.5 °F 69.1 °F 65% 30.06 in 10.0 mi WSW 11.5 mph - N/A   Clear
11:53 AM 84.0 °F 87.8 °F 69.1 °F 61% 30.05 in 10.0 mi SW 10.4 mph - N/A   Clear
12:53 PM 89.1 °F 92.9 °F 68.0 °F 50% 30.03 in 10.0 mi SW 10.4 mph - N/A   Clear
1:53 PM 93.0 °F 95.9 °F 66.0 °F 41% 30.01 in 10.0 mi WSW 15.0 mph 24.2 mph N/A   Clear
2:53 PM 93.9 °F 94.8 °F 62.1 °F 35% 29.99 in 10.0 mi SW 11.5 mph 21.9 mph N/A   Partly Cloudy
3:53 PM 91.0 °F 91.5 °F 62.1 °F 38% 29.97 in 10.0 mi WSW 15.0 mph 20.7 mph N/A   Partly Cloudy
4:53 PM 93.0 °F 93.8 °F 62.1 °F 36% 29.94 in 10.0 mi WSW 12.7 mph 19.6 mph N/A   Clear
5:53 PM 90.0 °F 91.7 °F 64.9 °F 43% 29.94 in 10.0 mi West 9.2 mph - 0.04 in   Mostly Cloudy
6:53 PM 89.1 °F 91.0 °F 64.9 °F 45% 29.94 in 10.0 mi WSW 8.1 mph - N/A   Clear
7:53 PM 81.0 °F 82.7 °F 64.9 °F 58% 29.97 in 10.0 mi NW 15.0 mph - N/A   Partly Cloudy
8:53 PM 78.1 °F - 64.9 °F 64% 29.99 in 10.0 mi WNW 15.0 mph 25.3 mph N/A   Partly Cloudy
9:53 PM 75.9 °F - 66.0 °F 71% 29.97 in 10.0 mi Calm Calm - 0.00 in   Partly Cloudy
10:53 PM 73.0 °F - 66.9 °F 81% 29.99 in 10.0 mi ESE 4.6 mph - N/A   Mostly Cloudy
11:53 PM 73.0 °F - 66.0 °F 79% 29.98 in 10.0 mi Calm Calm - N/A   Partly Cloudy